Cruise_ID,Date_UTC,Time_UTC,Date_EDT,Time_EDT,Lattitude,Longitude,pH,Temp_C,Ship_Sal_PSU
11BHM04,11/2/2011,4:54:00 PM,11/2/2011,12:54,27.6191,-82.65848,8.0278,21.86,23.52
11BHM04,11/2/2011,5:09:00 PM,11/2/2011,13:09,27.6088,-82.7035,8.0435,22.31,23.53
11BHM04,11/2/2011,5:24:00 PM,11/2/2011,13:24,27.6074,-82.75205,8.0618,22.69,23.54
11BHM04,11/2/2011,5:39:00 PM,11/2/2011,13:39,27.61143,-82.80125,8.0468,23.07,23.55
11BHM04,11/2/2011,5:54:00 PM,11/2/2011,13:54,27.59937,-82.84395,8.0444,23.29,33.92
11BHM04,11/2/2011,6:09:00 PM,11/2/2011,14:09,27.58592,-82.88317,8.0419,23.45,34.5
11BHM04,11/2/2011,6:24:00 PM,11/2/2011,14:24,27.5726,-82.92193,8.0503,23.5,34.86
11BHM04,11/2/2011,6:39:00 PM,11/2/2011,14:39,27.55932,-82.96057,8.0493,23.57,35.16
11BHM04,11/2/2011,6:54:00 PM,11/2/2011,14:54,27.55013,-82.98728,8.0531,23.63,35.41
11BHM04,11/2/2011,7:09:00 PM,11/2/2011,15:09,27.5465,-82.99787,8.0495,23.65,35.46
11BHM04,11/2/2011,7:24:00 PM,11/2/2011,15:24,27.54277,-83.00878,8.0437,23.68,35.51
11BHM04,11/2/2011,7:39:00 PM,11/2/2011,15:39,27.537,-83.02538,8.0583,23.75,35.57
11BHM04,11/2/2011,7:54:00 PM,11/2/2011,15:54,27.53437,-83.02898,8.0716,23.81,35.6
11BHM04,11/2/2011,8:09:00 PM,11/2/2011,16:09,27.53187,-83.03343,8.0598,23.96,35.63
11BHM04,11/2/2011,8:24:00 PM,11/2/2011,16:24,27.52818,-83.04472,8.0704,24.01,35.68
11BHM04,11/2/2011,8:39:00 PM,11/2/2011,16:39,27.52433,-83.0567,8.0683,24.06,35.75
11BHM04,11/2/2011,8:54:00 PM,11/2/2011,16:54,27.52048,-83.0684,8.0712,24.11,35.82
11BHM04,11/2/2011,9:09:00 PM,11/2/2011,17:09,27.51655,-83.0804,8.0802,24.14,35.93
11BHM04,11/2/2011,9:24:00 PM,11/2/2011,17:24,27.5127,-83.0915,8.1009,24.19,36.05
11BHM04,11/2/2011,9:39:00 PM,11/2/2011,17:39,27.50873,-83.10242,8.0822,24.19,36.07
11BHM04,11/2/2011,9:54:00 PM,11/2/2011,17:54,27.50477,-83.11352,8.0946,24.17,36.11
11BHM04,11/2/2011,10:09:00 PM,11/2/2011,18:09,27.50042,-83.12407,8.0913,24.3,36.2
11BHM04,11/2/2011,10:24:00 PM,11/2/2011,18:24,27.49463,-83.13403,8.1045,24.58,36.22
11BHM04,11/2/2011,10:39:00 PM,11/2/2011,18:39,27.48753,-83.14342,8.0908,24.66,36.25
11BHM04,11/2/2011,10:54:00 PM,11/2/2011,18:54,27.48045,-83.15285,8.0793,24.68,36.24
11BHM04,11/2/2011,11:09:00 PM,11/2/2011,19:09,27.47358,-83.16245,8.0756,24.76,36.32
11BHM04,11/2/2011,11:24:00 PM,11/2/2011,19:24,27.4725,-83.19358,8.0803,24.76,36.48
11BHM04,11/2/2011,11:39:00 PM,11/2/2011,19:39,27.47238,-83.23287,8.0807,24.79,36.47
11BHM04,11/2/2011,11:54:00 PM,11/2/2011,19:54,27.47228,-83.27233,8.0906,24.79,36.43
11BHM04,11/3/2011,12:09:00 AM,11/2/2011,20:09,27.4721,-83.29032,8.0847,24.79,36.43
11BHM04,11/3/2011,12:24:00 AM,11/2/2011,20:24,27.47193,-83.3011,8.0817,24.71,36.43
11BHM04,11/3/2011,12:39:00 AM,11/2/2011,20:39,27.4717,-83.3119,8.091,24.74,36.42
11BHM04,11/3/2011,12:54:00 AM,11/2/2011,20:54,27.47187,-83.32245,8.1002,24.84,36.42
11BHM04,11/3/2011,1:09:00 AM,11/2/2011,21:09,27.47107,-83.32592,8.0819,24.89,36.42
11BHM04,11/3/2011,1:24:00 AM,11/2/2011,21:24,27.46962,-83.32265,8.0968,24.84,36.4
11BHM04,11/3/2011,1:39:00 AM,11/2/2011,21:39,27.46827,-83.32492,8.0964,24.81,36.42
11BHM04,11/3/2011,1:54:00 AM,11/2/2011,21:54,27.46207,-83.34148,8.0907,24.87,36.41
11BHM04,11/3/2011,2:09:00 AM,11/2/2011,22:09,27.45685,-83.35368,8.0759,24.89,36.41
11BHM04,11/3/2011,2:24:00 AM,11/2/2011,22:24,27.45155,-83.36613,8.0829,24.95,36.43
11BHM04,11/3/2011,2:39:00 AM,11/2/2011,22:39,27.44633,-83.37895,8.0862,24.95,36.42
11BHM04,11/3/2011,2:54:00 AM,11/2/2011,22:54,27.4413,-83.39228,8.0893,24.97,36.43
11BHM04,11/3/2011,3:09:00 AM,11/2/2011,23:09,27.43667,-83.40573,8.0857,25,36.42
11BHM04,11/3/2011,3:24:00 AM,11/2/2011,23:24,27.432,-83.41905,8.077,25.02,36.39
11BHM04,11/3/2011,3:39:00 AM,11/2/2011,23:39,27.42727,-83.43295,8.0807,25.02,36.36
11BHM04,11/3/2011,3:54:00 AM,11/2/2011,23:54,27.4226,-83.44703,8.0857,25.26,36.37
11BHM04,11/3/2011,4:09:00 AM,11/3/2011,0:09,27.41818,-83.46107,8.0991,25.26,36.37
11BHM04,11/3/2011,4:24:00 AM,11/3/2011,0:24,27.41375,-83.47477,8.0797,25.36,36.36
11BHM04,11/3/2011,4:39:00 AM,11/3/2011,0:39,27.41207,-83.49452,8.0706,25.47,36.35
11BHM04,11/3/2011,4:54:00 AM,11/3/2011,0:54,27.41022,-83.51777,8.0602,25.58,36.25
11BHM04,11/3/2011,5:09:00 AM,11/3/2011,1:09,27.4087,-83.5427,8.082,25.47,36.25
11BHM04,11/3/2011,5:24:00 AM,11/3/2011,1:24,27.40812,-83.56735,8.0753,25.52,36.27
11BHM04,11/3/2011,5:39:00 AM,11/3/2011,1:39,27.40772,-83.5918,8.0788,25.58,36.28
11BHM04,11/3/2011,5:54:00 AM,11/3/2011,1:54,27.40732,-83.61637,8.0725,25.52,36.31
11BHM04,11/3/2011,6:09:00 AM,11/3/2011,2:09,27.40697,-83.64103,8.0822,25.52,36.25
11BHM04,11/3/2011,6:24:00 AM,11/3/2011,2:24,27.40678,-83.66553,8.0852,25.47,36.18
11BHM04,11/3/2011,6:39:00 AM,11/3/2011,2:39,27.40672,-83.68998,8.0783,25.5,36.19
11BHM04,11/3/2011,6:54:00 AM,11/3/2011,2:54,27.4065,-83.71445,8.0789,25.5,36.19
11BHM04,11/3/2011,7:09:00 AM,11/3/2011,3:09,27.40655,-83.7408,8.0863,25.44,36.18
11BHM04,11/3/2011,7:24:00 AM,11/3/2011,3:24,27.40675,-83.76785,8.0802,25.52,36.17
11BHM04,11/3/2011,7:39:00 AM,11/3/2011,3:39,27.40698,-83.79472,8.0797,25.58,36.2
11BHM04,11/3/2011,7:54:00 AM,11/3/2011,3:54,27.40703,-83.82158,8.0893,25.55,36.17
11BHM04,11/3/2011,8:09:00 AM,11/3/2011,4:09,27.40658,-83.84827,8.0784,25.55,36.11
11BHM04,11/3/2011,8:24:00 AM,11/3/2011,4:24,27.40177,-83.87437,8.0894,25.52,36.11
11BHM04,11/3/2011,8:39:00 AM,11/3/2011,4:39,27.39803,-83.90043,8.0601,25.52,36.09
11BHM04,11/3/2011,8:54:00 AM,11/3/2011,4:54,27.39413,-83.9264,8.0803,25.5,36.07
11BHM04,11/3/2011,9:09:00 AM,11/3/2011,5:09,27.38995,-83.95292,8.0831,25.66,36.07
11BHM04,11/3/2011,9:24:00 AM,11/3/2011,5:24,27.38035,-83.9567,8.0763,25.58,36.02
11BHM04,11/3/2011,9:39:00 AM,11/3/2011,5:39,27.36808,-83.9413,8.074,25.52,36
11BHM04,11/3/2011,9:52:00 AM,11/3/2011,5:52,27.35805,-83.9283,8.0639,25.47,36.01
11BHM04,11/3/2011,10:07:00 AM,11/3/2011,6:07,27.35302,-83.91717,8.0744,25.47,35.98
11BHM04,11/3/2011,10:22:00 AM,11/3/2011,6:22,27.3517,-83.9079,8.0825,25.47,36.07
11BHM04,11/3/2011,10:37:00 AM,11/3/2011,6:37,27.35545,-83.89827,8.0753,25.6,36.06
11BHM04,11/3/2011,10:52:00 AM,11/3/2011,6:52,27.358,-83.88835,8.0821,25.6,35.95
11BHM04,11/3/2011,11:07:00 AM,11/3/2011,7:07,27.36115,-83.87858,8.0838,25.55,36.09
11BHM04,11/3/2011,11:22:00 AM,11/3/2011,7:22,27.3619,-83.87055,8.0735,25.6,36.09
11BHM04,11/3/2011,11:37:00 AM,11/3/2011,7:37,27.34583,-83.88753,8.0762,25.63,36.13
11BHM04,11/3/2011,11:52:00 AM,11/3/2011,7:52,27.34488,-83.89873,8.0775,25.58,36.12
11BHM04,11/3/2011,12:07:00 PM,11/3/2011,8:07,27.34178,-83.92533,8.0787,25.52,36.08
11BHM04,11/3/2011,12:22:00 PM,11/3/2011,8:22,27.34178,-83.93888,8.0977,25.55,36.1
11BHM04,11/3/2011,12:37:00 PM,11/3/2011,8:37,27.34137,-83.95225,8.0804,25.52,36.12
11BHM04,11/3/2011,12:52:00 PM,11/3/2011,8:52,27.34043,-83.96532,8.0728,25.52,36.11
11BHM04,11/3/2011,1:07:00 PM,11/3/2011,9:07,27.34152,-83.97797,8.0786,25.52,36.11
11BHM04,11/3/2011,1:22:00 PM,11/3/2011,9:22,27.34278,-83.99052,8.0785,25.55,36.11
11BHM04,11/3/2011,1:37:00 PM,11/3/2011,9:37,27.3443,-84.00313,8.077,25.58,36.1
11BHM04,11/3/2011,1:52:00 PM,11/3/2011,9:52,27.34577,-84.01595,8.0821,25.63,36.09
11BHM04,11/3/2011,2:07:00 PM,11/3/2011,10:07,27.34725,-84.0286,8.0934,25.73,36.09
11BHM04,11/3/2011,2:22:00 PM,11/3/2011,10:22,27.349,-84.04125,8.0858,25.6,36.1
11BHM04,11/3/2011,2:37:00 PM,11/3/2011,10:37,27.35085,-84.05382,8.1041,25.66,36.11
11BHM04,11/3/2011,2:52:00 PM,11/3/2011,10:52,27.3508,-84.082,8.0954,25.73,36.13
11BHM04,11/3/2011,3:07:00 PM,11/3/2011,11:07,27.33598,-84.11893,8.093,25.73,36.11
11BHM04,11/3/2011,3:22:00 PM,11/3/2011,11:22,27.32087,-84.15565,8.0863,25.79,35.92
11BHM04,11/3/2011,3:37:00 PM,11/3/2011,11:37,27.30605,-84.19185,8.0969,25.76,35.83
11BHM04,11/3/2011,3:52:00 PM,11/3/2011,11:52,27.29095,-84.22863,8.1092,25.81,35.75
11BHM04,11/3/2011,4:07:00 PM,11/3/2011,12:07,27.2758,-84.26567,8.0901,25.6,35.72
11BHM04,11/3/2011,4:22:00 PM,11/3/2011,12:22,27.26057,-84.30275,8.0918,25.6,35.69
11BHM04,11/3/2011,4:37:00 PM,11/3/2011,12:37,27.24518,-84.34015,8.1001,25.66,35.67
11BHM04,11/3/2011,4:52:00 PM,11/3/2011,12:52,27.22973,-84.37793,8.0791,25.76,35.69
11BHM04,11/3/2011,5:07:00 PM,11/3/2011,13:07,27.21452,-84.4149,8.0888,25.81,35.72
11BHM04,11/3/2011,5:22:00 PM,11/3/2011,13:22,27.21133,-84.42775,8.0945,25.79,35.71
11BHM04,11/3/2011,5:37:00 PM,11/3/2011,13:37,27.21025,-84.44108,8.0819,25.87,35.72
11BHM04,11/3/2011,5:52:00 PM,11/3/2011,13:52,27.20958,-84.45377,8.0982,25.89,35.74
11BHM04,11/3/2011,6:07:00 PM,11/3/2011,14:07,27.20903,-84.46717,8.0901,25.87,35.75
11BHM04,11/3/2011,6:22:00 PM,11/3/2011,14:22,27.20838,-84.48093,8.0961,25.92,35.74
11BHM04,11/3/2011,6:37:00 PM,11/3/2011,14:37,27.19755,-84.46468,8.0885,25.95,35.73
11BHM04,11/3/2011,6:52:00 PM,11/3/2011,14:52,27.199,-84.46768,8.0862,25.89,35.74
11BHM04,11/3/2011,7:07:00 PM,11/3/2011,15:07,27.2003,-84.48292,8.1032,25.97,35.74
11BHM04,11/3/2011,7:22:00 PM,11/3/2011,15:22,27.19678,-84.46493,8.0849,26.05,35.74
11BHM04,11/3/2011,7:37:00 PM,11/3/2011,15:37,27.19477,-84.4809,8.0853,26.08,35.75
11BHM04,11/3/2011,7:52:00 PM,11/3/2011,15:52,27.1926,-84.49718,8.0968,26.08,35.76
11BHM04,11/3/2011,8:07:00 PM,11/3/2011,16:07,27.19083,-84.51063,8.0909,26.05,35.75
11BHM04,11/3/2011,8:22:00 PM,11/3/2011,16:22,27.18888,-84.52365,8.0763,26.08,35.7
11BHM04,11/3/2011,8:37:00 PM,11/3/2011,16:37,27.18685,-84.53617,8.0778,26.11,35.69
11BHM04,11/3/2011,8:52:00 PM,11/3/2011,16:52,27.18535,-84.5487,8.0909,26.05,35.69
11BHM04,11/3/2011,9:07:00 PM,11/3/2011,17:07,27.18432,-84.56117,8.0885,26.11,35.68
11BHM04,11/3/2011,9:22:00 PM,11/3/2011,17:22,27.18475,-84.57358,8.0833,26.24,35.72
11BHM04,11/3/2011,9:37:00 PM,11/3/2011,17:37,27.18817,-84.58537,8.0857,26.21,35.68
11BHM04,11/3/2011,9:52:00 PM,11/3/2011,17:52,27.1934,-84.59602,8.0997,26.19,35.65
11BHM04,11/3/2011,10:07:00 PM,11/3/2011,18:07,27.19982,-84.60558,8.0736,26.16,35.67
11BHM04,11/3/2011,10:22:00 PM,11/3/2011,18:22,27.20747,-84.61352,8.0638,26.13,35.78
11BHM04,11/3/2011,10:37:00 PM,11/3/2011,18:37,27.21568,-84.61997,8.0863,26.03,35.78
11BHM04,11/3/2011,10:52:00 PM,11/3/2011,18:52,27.225,-84.62545,8.1026,25.89,35.74
11BHM04,11/3/2011,11:07:00 PM,11/3/2011,19:07,27.23808,-84.63162,8.0779,26.08,35.71
11BHM04,11/3/2011,11:22:00 PM,11/3/2011,19:22,27.25167,-84.63613,8.0903,26.13,35.68
11BHM04,11/3/2011,11:37:00 PM,11/3/2011,19:37,27.26517,-84.64078,8.1018,26.08,35.71
11BHM04,11/3/2011,11:52:00 PM,11/3/2011,19:52,27.26602,-84.64517,8.0909,26.03,35.71
11BHM04,11/4/2011,12:07:00 AM,11/3/2011,20:07,27.24727,-84.67982,8.0745,26.43,35.72
11BHM04,11/4/2011,12:22:00 AM,11/3/2011,20:22,27.23018,-84.71662,8.09,26.51,35.77
11BHM04,11/4/2011,12:37:00 AM,11/3/2011,20:37,27.2134,-84.75303,8.0754,26.59,35.85
11BHM04,11/4/2011,12:52:00 AM,11/3/2011,20:52,27.19693,-84.78937,8.0898,25.55,35.84
11BHM04,11/4/2011,1:07:00 AM,11/3/2011,21:07,27.17965,-84.82525,8.0971,25.6,36.02
11BHM04,11/4/2011,1:22:00 AM,11/3/2011,21:22,27.16307,-84.86148,8.0976,25.39,35.99
11BHM04,11/4/2011,1:37:00 AM,11/3/2011,21:37,27.14665,-84.89785,8.077,25.42,36.06
11BHM04,11/4/2011,1:52:00 AM,11/3/2011,21:52,27.13122,-84.93452,8.0872,25.31,36.06
11BHM04,11/4/2011,2:07:00 AM,11/3/2011,22:07,27.11285,-84.97028,8.0966,25.44,36.07
11BHM04,11/4/2011,2:22:00 AM,11/3/2011,22:22,27.08768,-84.9949,8.1176,25.26,36.09
11BHM04,11/4/2011,2:37:00 AM,11/3/2011,22:37,27.07687,-84.99847,8.0815,25.18,36.1
11BHM04,11/4/2011,2:52:00 AM,11/3/2011,22:52,27.06837,-85.00175,8.0915,25.15,36.07
11BHM04,11/4/2011,3:07:00 AM,11/3/2011,23:07,27.06505,-85.00997,8.0825,25.15,36.04
11BHM04,11/4/2011,3:22:00 AM,11/3/2011,23:22,27.06208,-85.01767,8.1068,25.08,36.08
11BHM04,11/4/2011,3:37:00 AM,11/3/2011,23:37,27.05977,-85.02628,8.0934,25.1,36.08
11BHM04,11/4/2011,3:52:00 AM,11/3/2011,23:52,27.05775,-85.03487,8.0835,25.1,36.09
11BHM04,11/4/2011,4:07:00 AM,11/4/2011,0:07,27.05638,-85.03823,8.0964,25.08,36.11
11BHM04,11/4/2011,4:22:00 AM,11/4/2011,0:22,27.0547,-85.03693,8.1166,25.1,36.1
11BHM04,11/4/2011,4:37:00 AM,11/4/2011,0:37,27.05317,-85.03623,8.0739,25.21,36.1
11BHM04,11/4/2011,4:52:00 AM,11/4/2011,0:52,27.05162,-85.03547,8.0983,25.21,36.09
11BHM04,11/4/2011,5:07:00 AM,11/4/2011,1:07,27.04985,-85.03453,8.0932,25.21,36.08
11BHM04,11/4/2011,5:22:00 AM,11/4/2011,1:22,27.04743,-85.0329,8.1015,25.26,36.09
11BHM04,11/4/2011,5:37:00 AM,11/4/2011,1:37,27.05072,-85.02297,8.097,25.31,36.07
11BHM04,11/4/2011,5:52:00 AM,11/4/2011,1:52,27.05527,-85.01345,8.1031,25.29,36.05
11BHM04,11/4/2011,6:07:00 AM,11/4/2011,2:07,27.05965,-85.00343,8.0815,25.29,36.06
11BHM04,11/4/2011,6:22:00 AM,11/4/2011,2:22,27.06445,-84.99303,8.1002,25.23,36.08
11BHM04,11/4/2011,6:37:00 AM,11/4/2011,2:37,27.06918,-84.98273,8.0976,25.21,36.09
11BHM04,11/4/2011,6:52:00 AM,11/4/2011,2:52,27.0742,-84.972,8.0942,25.23,36.09
11BHM04,11/4/2011,7:07:00 AM,11/4/2011,3:07,27.07945,-84.96122,8.091,25.23,36.09
11BHM04,11/4/2011,7:22:00 AM,11/4/2011,3:22,27.08428,-84.95008,8.093,25.29,36.13
11BHM04,11/4/2011,7:37:00 AM,11/4/2011,3:37,27.08847,-84.93827,8.1,25.31,36.12
11BHM04,11/4/2011,7:52:00 AM,11/4/2011,3:52,27.09142,-84.92572,8.105,25.15,36.14
11BHM04,11/4/2011,8:07:00 AM,11/4/2011,4:07,27.10307,-84.93193,8.0851,25.08,36.12
11BHM04,11/4/2011,8:22:00 AM,11/4/2011,4:22,27.1267,-84.95483,8.0897,25.08,36.12
11BHM04,11/4/2011,8:37:00 AM,11/4/2011,4:37,27.15035,-84.97803,8.0822,25.21,36.11
11BHM04,11/4/2011,8:52:00 AM,11/4/2011,4:52,27.17292,-85.00067,8.1142,25.29,36.1
11BHM04,11/4/2011,9:07:00 AM,11/4/2011,5:07,27.1943,-85.02343,8.0909,25.08,36.15
11BHM04,11/4/2011,9:22:00 AM,11/4/2011,5:22,27.21285,-85.04453,8.1155,24.97,36.14
11BHM04,11/4/2011,9:37:00 AM,11/4/2011,5:37,27.22967,-85.06562,8.0964,24.58,36.08
11BHM04,11/4/2011,9:52:00 AM,11/4/2011,5:52,27.24382,-85.08385,8.1333,24.01,36.02
11BHM04,11/4/2011,10:07:00 AM,11/4/2011,6:07,27.25593,-85.09852,8.1262,23.65,35.97
11BHM04,11/4/2011,10:22:00 AM,11/4/2011,6:22,27.2647,-85.10968,8.1123,23.24,36.05
11BHM04,11/4/2011,10:37:00 AM,11/4/2011,6:37,27.2718,-85.11915,8.1289,23.04,36.08
11BHM04,11/4/2011,10:52:00 AM,11/4/2011,6:52,27.27825,-85.12902,8.143,22.76,36.04
11BHM04,11/4/2011,11:07:00 AM,11/4/2011,7:07,27.28392,-85.13872,8.1254,22.56,36.05
11BHM04,11/4/2011,11:22:00 AM,11/4/2011,7:22,27.29023,-85.14605,8.1324,22.36,36.05
11BHM04,11/4/2011,11:37:00 AM,11/4/2011,7:37,27.29797,-85.15457,8.1581,22.21,36.07
11BHM04,11/4/2011,11:52:00 AM,11/4/2011,7:52,27.30543,-85.16335,8.1309,22.08,36.08
11BHM04,11/4/2011,12:07:00 PM,11/4/2011,8:07,27.31338,-85.17248,8.14,22.01,36.1
11BHM04,11/4/2011,12:22:00 PM,11/4/2011,8:22,27.32142,-85.18217,8.1314,21.86,36.09
11BHM04,11/4/2011,12:37:00 PM,11/4/2011,8:37,27.3295,-85.19138,8.131,21.78,36.1
11BHM04,11/4/2011,12:52:00 PM,11/4/2011,8:52,27.33852,-85.20027,8.1282,21.71,36.11
11BHM04,11/4/2011,1:07:00 PM,11/4/2011,9:07,27.34605,-85.20908,8.1418,21.63,36.1
11BHM04,11/4/2011,1:22:00 PM,11/4/2011,9:22,27.35407,-85.21747,8.1456,21.56,36.13
11BHM04,11/4/2011,1:37:00 PM,11/4/2011,9:37,27.36238,-85.22583,8.143,21.44,36.1
11BHM04,11/4/2011,1:52:00 PM,11/4/2011,9:52,27.37093,-85.2343,8.1493,21.44,36.12
11BHM04,11/4/2011,2:07:00 PM,11/4/2011,10:07,27.37988,-85.24307,8.1463,21.31,36.11
11BHM04,11/4/2011,2:22:00 PM,11/4/2011,10:22,27.3898,-85.25212,8.1395,21.26,36.15
11BHM04,11/4/2011,2:37:00 PM,11/4/2011,10:37,27.39902,-85.26142,8.1356,21.19,36.12
11BHM04,11/4/2011,2:52:00 PM,11/4/2011,10:52,27.4079,-85.27088,8.1509,21.14,36.11
11BHM04,11/4/2011,3:07:00 PM,11/4/2011,11:07,27.41632,-85.27983,8.1313,21.11,36.15
11BHM04,11/4/2011,3:22:00 PM,11/4/2011,11:22,27.42507,-85.289,8.1501,21.04,36.12
11BHM04,11/4/2011,3:37:00 PM,11/4/2011,11:37,27.43335,-85.29795,8.1396,21.02,36.12
11BHM04,11/4/2011,3:52:00 PM,11/4/2011,11:52,27.44253,-85.3074,8.1386,20.97,36.1
11BHM04,11/4/2011,4:07:00 PM,11/4/2011,12:07,27.45242,-85.3168,8.1471,20.94,36.13
11BHM04,11/4/2011,4:22:00 PM,11/4/2011,12:22,27.46217,-85.32578,8.1472,20.92,36.1
